Theta_e
334 331 328 329 316 315 314 310 298 299 298 295 295 296 295 298 301 300 301 302 301 324 328 329 327 317 317 317 318 327 328 323 324 316 315 334 346 348 348 349 353 354 354 354 356 357 355 354 354 354 354 353 353 353 353 353 353 352 351 352 353 353 353 353 353 353 352 352 352 351 351 350 350 350 349 349 349 349 349 348 347 348 347 347 346 345 344 344 345 345 346 346 346 345 346 346 345
331 320 318 320 315 313 308 304 298 296 295 293 295 296 298 299 301 302 307 307 303 326 331 332 332 332 331 330 331 332 327 332 334 332 337 343 346 347 348 351 353 353 353 355 357 357 355 354 354 352 353 353 353 353 353 353 353 354 353 353 353 353 353 352 352 352 351 351 351 350 350 350 349 349 349 349 348 349 349 348 348 348 348 347 346 345 345 344 344 344 344 345 344 346 346 345 344
323 315 314 316 310 309 307 304 294 295 292 289 294 296 299 299 301 309 316 308 322 329 330 329 330 330 328 328 325 327 323 336 336 340 338 342 339 342 351 352 353 353 355 356 356 357 355 354 354 353 352 352 353 354 354 354 354 354 354 353 353 353 352 352 352 351 351 351 350 350 350 350 350 349 349 349 349 349 348 348 349 349 349 347 346 345 345 344 343 343 345 346 346 345 345 345 344
319 316 314 314 307 307 304 300 297 295 291 292 292 296 297 300 303 308 323 320 329 327 327 326 325 331 328 323 327 331 331 332 338 339 336 339 341 346 350 352 354 353 355 355 356 356 356 353 353 353 352 352 353 354 354 353 353 353 353 353 353 353 352 351 352 352 351 351 351 350 350 350 350 350 350 350 350 349 348 347 347 349 349 349 348 346 345 345 344 344 344 344 345 345 346 344 344
316 316 311 310 306 301 301 297 296 296 291 294 292 296 298 300 301 306 324 327 329 327 326 327 326 331 334 331 331 323 328 338 339 342 340 344 348 349 350 352 352 352 353 355 356 356 356 353 353 352 352 353 353 354 354 353 353 353 353 353 353 353 352 353 353 352 351 351 350 350 350 351 351 351 351 350 350 349 348 347 347 347 347 348 348 347 346 345 345 344 345 346 346 346 346 343 343
309 310 310 308 303 305 301 294 294 294 298 297 295 299 299 301 302 303 305 325 327 326 327 327 323 325 328 333 335 330 337 329 340 343 343 344 348 351 351 351 351 350 353 356 356 356 356 353 353 352 352 353 353 354 353 353 353 353 353 353 353 353 352 352 352 352 351 350 350 350 350 350 351 350 351 350 349 349 348 347 348 347 347 348 347 346 345 345 344 344 345 346 347 346 345 344 344
308 307 307 306 303 304 297 295 294 295 298 298 298 299 301 300 301 302 303 304 318 327 330 326 331 330 326 331 336 340 344 343 341 344 346 347 351 351 352 350 350 350 353 354 356 356 356 351 352 352 352 353 353 354 355 354 354 354 353 353 352 352 352 352 352 351 351 352 352 352 351 351 351 350 350 350 349 349 348 348 347 347 347 348 347 347 346 345 345 345 346 346 345 345 344 344 343
309 305 303 301 297 298 295 295 295 296 296 297 300 299 302 301 302 301 301 302 308 319 328 330 331 327 325 335 327 339 345 346 347 349 349 349 349 350 350 350 349 350 352 355 356 356 354 351 352 352 353 353 353 353 354 354 354 353 352 351 352 352 351 351 351 351 351 351 351 351 351 351 350 350 349 349 349 349 348 348 346 347 348 347 346 346 346 346 345 344 345 344 344 343 343 343 343
306 305 300 299 296 295 294 294 295 296 297 299 300 302 306 305 303 301 301 304 315 325 327 329 330 322 324 331 331 337 342 347 349 349 349 348 348 350 349 350 349 349 352 353 356 357 355 352 351 351 352 352 352 353 353 353 352 352 351 351 351 350 351 350 351 351 351 350 351 350 350 350 350 349 349 349 349 348 347 347 347 347 347 346 346 345 346 346 346 344 344 344 344 344 344 344 342
304 303 299 298 297 293 292 294 292 296 296 300 299 301 303 301 301 302 301 301 303 326 328 331 327 323 330 327 331 336 339 346 348 347 347 348 347 348 349 349 350 350 350 352 356 354 354 354 351 350 351 352 352 352 352 352 350 350 351 350 350 350 350 350 350 350 350 350 351 350 350 350 350 349 348 349 348 348 347 347 347 346 346 346 345 345 345 345 346 345 345 344 345 345 344 343 342
301 301 300 297 293 293 292 293 293 297 297 299 300 302 302 302 300 300 301 305 311 322 329 332 327 328 329 328 333 342 345 346 345 342 346 346 347 347 348 349 349 351 350 350 352 353 353 353 349 349 350 350 349 350 349 350 349 350 350 350 350 350 350 350 350 350 350 350 350 350 350 349 349 349 348 348 348 348 347 347 346 346 346 345 345 345 344 345 344 344 344 343 343 343 342 342 341
299 300 298 294 294 293 293 293 295 297 299 298 300 302 301 300 300 299 300 303 322 327 326 331 325 332 327 328 330 340 343 344 344 344 345 347 346 347 348 349 349 351 351 352 352 352 354 354 349 349 346 349 349 349 345 349 350 350 350 349 349 349 349 350 350 350 350 351 350 350 350 349 349 348 348 348 348 347 347 346 345 345 345 344 345 345 344 344 344 344 344 343 343 342 342 342 341
301 297 297 295 294 294 293 292 295 297 298 299 299 302 302 300 301 304 303 317 326 325 325 330 333 332 324 327 335 340 339 341 343 343 344 345 346 346 348 349 349 350 351 351 349 348 349 347 349 347 348 349 349 345 345 349 350 349 349 349 349 349 349 350 350 350 351 351 351 350 350 350 349 348 348 348 348 347 347 346 346 344 345 344 345 345 344 344 344 344 342 341 342 342 342 342 341
302 299 298 294 292 293 294 295 294 295 296 299 299 300 302 306 311 319 322 322 324 323 327 333 334 333 328 330 330 334 338 341 342 343 343 344 345 346 346 347 347 348 349 350 349 348 348 343 342 344 344 348 349 346 348 350 350 349 348 349 349 348 349 350 350 350 351 351 350 350 350 350 349 348 348 348 348 348 347 346 346 346 345 345 345 345 344 344 344 343 342 342 341 341 342 342 341
303 299 300 296 293 293 294 294 295 295 297 299 301 300 306 316 317 325 325 323 322 328 333 337 333 327 321 326 326 332 338 341 340 341 342 344 344 345 345 346 346 346 348 349 350 349 347 343 342 340 341 346 346 344 348 350 348 349 349 349 348 348 349 349 350 350 350 350 351 350 350 349 349 349 348 348 348 348 347 346 346 346 345 345 345 345 344 343 343 342 341 341 342 342 341 342 341
304 299 298 295 292 292 294 294 293 294 297 298 300 300 303 317 321 316 319 321 327 332 333 328 333 322 328 327 330 337 340 340 340 341 342 342 343 343 344 344 343 343 343 346 344 345 345 344 343 343 344 342 344 348 347 348 347 348 350 349 349 349 349 349 350 350 350 350 350 348 348 348 347 349 348 348 348 348 347 345 346 346 346 345 345 345 344 344 342 342 342 341 341 341 341 341 341
301 302 295 294 292 291 294 294 294 295 299 299 299 300 299 307 320 325 328 328 327 327 326 327 329 332 328 333 337 342 341 341 340 339 339 339 339 340 341 340 340 340 342 341 344 345 348 345 343 342 342 339 341 346 346 345 344 348 350 350 349 349 350 350 350 350 350 349 349 346 345 352 352 350 351 348 345 348 347 347 346 346 346 346 345 345 344 344 343 342 342 342 341 341 341 340 341
301 298 296 292 294 292 297 296 297 298 298 300 300 299 300 300 321 324 328 327 327 326 325 329 333 334 336 337 341 343 341 339 338 336 336 335 337 336 336 337 337 336 338 340 343 346 346 346 341 340 339 340 342 344 345 341 340 347 349 351 352 350 350 350 351 350 350 350 346 348 350 351 351 351 352 345 352 349 348 347 346 346 346 345 345 344 344 343 343 342 342 342 341 339 339 340 341
299 295 295 294 293 297 300 298 299 297 299 299 301 299 298 300 318 319 319 321 324 323 323 327 329 333 336 339 340 340 339 338 337 336 334 334 334 333 334 334 334 335 335 338 341 344 344 340 340 337 337 340 342 344 346 344 342 345 347 349 348 348 349 349 348 348 348 347 348 347 349 349 350 350 351 349 349 345 348 342 342 344 346 346 345 345 344 343 343 342 342 341 339 336 338 337 338
299 298 294 295 297 299 297 299 299 300 299 299 300 300 298 300 305 314 318 320 321 320 320 323 326 328 331 335 338 338 338 337 337 335 334 333 334 333 332 331 333 333 332 333 336 337 338 337 336 335 337 339 339 341 344 345 347 345 344 343 348 347 349 347 347 346 346 347 346 347 348 348 349 350 344 345 344 349 347 343 342 342 342 342 345 344 344 344 343 341 341 340 340 340 338 336 335
298 297 295 296 297 295 300 298 300 300 298 299 298 298 299 300 301 317 320 318 318 321 324 323 325 328 330 333 335 336 337 337 336 336 334 331 329 328 327 327 328 330 333 335 337 335 336 335 335 336 336 339 341 343 342 342 339 335 334 337 343 345 344 347 346 345 345 346 346 347 346 347 347 349 350 348 346 348 348 348 348 347 347 346 343 341 342 344 344 344 344 342 340 338 336 337 337
297 297 299 297 295 296 301 301 299 299 299 299 297 298 299 300 316 317 320 311 306 317 322 324 326 332 331 332 335 336 335 335 335 333 330 326 325 327 328 330 331 332 334 334 333 335 336 335 337 336 337 337 340 340 342 342 342 339 334 337 340 342 344 345 345 345 345 345 345 345 345 346 347 347 348 347 345 345 346 347 347 347 347 346 347 346 342 342 342 343 342 340 339 340 339 338 338
295 297 296 296 298 298 300 299 298 298 298 297 297 299 300 301 301 316 319 313 313 316 318 320 329 334 335 335 335 334 334 334 333 327 326 326 328 329 330 330 329 329 331 333 334 335 335 337 337 337 335 335 334 340 340 338 340 339 340 338 340 343 345 343 342 343 343 344 344 345 344 344 344 344 343 343 344 344 345 346 345 347 346 346 347 347 344 343 341 341 342 340 339 340 338 338 337
298 297 295 298 297 297 299 299 297 297 296 298 299 299 298 299 297 305 316 319 314 322 325 323 331 336 335 333 334 334 334 334 327 326 328 330 329 329 330 330 331 331 331 331 333 334 334 334 337 337 336 334 334 336 339 340 341 342 339 341 343 345 343 342 343 341 343 344 344 344 345 345 344 342 341 340 341 342 343 344 345 347 347 347 347 346 344 343 341 341 343 339 338 338 335 336 334
296 296 298 298 295 299 298 297 297 297 297 298 297 297 298 299 299 309 309 315 323 326 328 330 334 334 334 333 334 334 334 328 325 326 328 330 330 331 332 333 333 332 330 331 332 333 334 334 334 337 336 334 335 337 337 341 343 340 340 341 344 344 343 343 342 341 342 343 344 344 345 344 343 342 341 341 340 342 342 342 344 345 346 347 346 345 344 343 341 340 341 339 339 339 337 337 335
296 298 297 296 297 299 297 297 298 296 297 297 298 298 299 298 305 302 306 318 324 328 330 331 333 333 333 333 334 334 334 328 326 326 327 328 329 327 328 330 332 330 331 331 333 334 336 336 334 336 336 336 336 335 335 337 341 343 344 344 344 344 343 342 341 341 342 343 344 345 345 345 344 343 341 340 340 341 342 342 342 342 343 344 345 343 344 342 340 340 340 339 337 337 337 336 336
297 297 297 298 298 296 298 297 299 295 297 297 298 298 299 302 300 298 310 322 326 327 327 330 332 330 332 333 334 335 332 328 327 327 326 326 326 328 329 331 331 331 332 331 332 334 335 336 336 337 336 337 336 334 337 339 337 341 341 344 343 343 343 341 341 342 341 343 344 345 344 344 345 345 342 340 342 342 341 340 340 342 342 342 343 342 345 345 342 340 339 339 338 337 335 336 335
296 297 296 297 296 296 297 295 297 297 299 296 298 297 297 301 301 300 311 324 326 325 325 328 329 330 331 332 333 333 331 330 327 328 324 322 326 329 329 330 331 331 332 331 333 333 333 333 336 335 335 337 338 337 338 339 341 341 342 342 343 343 344 342 341 341 341 342 343 343 344 343 344 345 343 339 339 338 339 340 341 342 342 342 342 342 343 345 343 341 341 341 340 337 336 335 336
297 298 295 297 295 298 296 296 296 296 298 296 298 297 296 298 299 303 313 323 324 325 324 326 327 329 330 331 329 329 328 325 328 327 324 323 328 330 332 332 331 331 333 333 333 334 334 335 336 335 335 335 336 336 337 339 340 340 341 341 342 342 342 342 342 343 343 342 342 342 339 341 342 343 338 335 336 335 336 339 341 340 340 340 342 341 341 344 344 342 341 340 338 337 336 335 334
297 296 295 295 295 295 295 294 295 295 297 295 298 292 295 297 301 307 321 322 323 323 323 324 325 326 327 327 326 327 325 325 325 327 326 326 327 328 331 331 333 332 331 332 334 333 334 336 337 338 337 335 335 334 335 337 339 340 341 341 341 341 342 342 342 343 342 341 341 341 340 339 341 336 333 335 337 336 338 339 339 338 339 340 339 340 340 340 341 341 339 338 337 337 336 337 338
295 294 295 293 292 292 295 295 295 296 296 295 298 292 295 297 299 299 318 323 322 322 322 322 322 323 323 323 324 324 322 327 326 327 325 325 326 327 328 331 332 333 332 333 333 335 334 335 338 339 340 338 335 334 335 337 338 340 339 338 339 339 340 340 340 340 340 340 340 340 340 341 340 334 335 336 337 338 339 339 338 338 340 340 336 336 337 332 332 335 337 337 338 338 336 337 338
294 292 291 291 291 293 296 297 295 296 296 296 297 293 295 298 299 296 316 321 322 321 321 321 320 322 323 323 324 323 321 322 324 326 327 326 327 326 325 328 332 333 333 334 335 336 335 335 337 339 340 338 338 339 341 340 339 339 340 339 341 341 339 339 341 340 339 339 338 337 338 340 340 336 336 337 336 338 338 338 337 338 338 337 337 337 336 333 334 334 337 338 336 335 335 335 336
293 292 292 290 290 293 295 295 296 298 297 297 297 293 294 296 297 300 309 321 321 320 320 320 320 320 321 323 324 323 321 321 323 325 326 327 327 327 326 327 332 334 335 336 336 336 335 335 338 338 337 339 341 341 341 341 340 339 339 339 338 340 339 339 338 337 336 335 336 336 337 339 338 339 339 338 338 337 336 337 337 338 338 337 336 337 337 338 338 333 335 334 336 335 334 333 334
291 292 292 291 291 293 292 298 296 295 296 295 296 294 296 298 297 312 316 320 319 319 320 319 319 319 320 321 322 322 323 322 322 326 326 327 328 327 328 329 334 335 334 335 337 337 335 334 335 337 339 340 340 340 340 339 338 337 337 337 338 337 337 338 338 337 336 335 336 335 336 337 338 339 340 340 339 337 336 336 336 337 338 337 337 338 337 338 338 338 331 332 333 334 334 334 333
290 291 292 291 291 291 293 293 295 296 294 296 294 295 296 298 297 310 318 320 319 318 319 319 318 318 319 320 320 321 322 322 322 326 329 328 329 328 330 332 334 334 334 334 335 335 334 334 335 337 339 339 339 339 338 337 337 336 336 336 336 337 338 337 337 336 336 336 335 335 336 338 338 339 338 338 337 335 335 335 336 337 337 336 337 336 336 336 336 336 330 328 331 334 335 335 334
292 292 292 291 291 292 292 296 296 296 296 295 294 294 296 297 297 305 317 318 318 318 318 318 317 318 318 319 319 320 320 321 322 325 328 330 330 331 332 333 333 333 334 333 334 335 336 335 335 336 337 338 338 338 337 336 336 334 333 334 334 335 336 335 335 334 335 335 336 336 337 338 336 338 338 338 337 335 334 334 334 336 337 336 335 334 334 333 333 333 330 328 327 329 332 333 333
292 292 292 291 291 293 294 294 296 296 295 296 296 296 296 296 297 303 316 317 317 317 316 317 317 317 317 318 319 320 320 320 321 323 326 328 329 331 332 332 331 332 333 333 334 336 337 335 335 334 336 337 337 337 337 337 335 334 335 335 333 333 332 333 332 333 334 335 335 335 336 336 336 337 337 337 336 334 333 334 335 335 336 336 336 334 333 333 333 332 330 330 328 328 328 330 331
292 292 291 291 290 292 296 295 294 298 296 295 293 293 294 296 296 297 314 316 315 316 316 317 317 317 318 318 318 319 320 319 320 323 325 327 327 330 331 332 332 330 332 333 333 336 337 336 335 335 334 336 337 339 338 338 338 338 336 333 332 331 331 330 329 331 332 333 334 335 335 336 335 335 336 336 335 334 334 334 335 335 335 334 333 333 333 332 333 333 332 329 331 329 328 330 330
294 292 292 292 293 293 295 293 295 296 295 294 292 292 294 296 297 298 311 315 317 318 317 318 318 317 317 318 319 318 317 318 320 323 325 326 328 329 330 331 332 333 332 332 334 335 336 334 335 335 334 335 336 338 338 336 335 335 336 332 330 325 325 328 327 328 330 332 333 335 335 336 336 335 336 336 336 335 335 334 333 334 333 332 332 332 332 332 333 332 332 329 326 329 329 330 330
294 292 292 291 292 291 292 295 295 297 293 295 293 293 295 297 298 299 306 312 309 313 316 317 317 317 316 318 318 317 317 318 319 321 323 325 327 329 330 330 331 332 332 332 333 334 334 334 335 334 333 333 334 337 336 334 332 331 331 330 329 330 325 325 328 328 329 330 329 331 334 335 336 336 336 337 337 335 335 334 334 334 334 334 333 331 332 331 332 332 332 330 329 324 324 325 330
294 294 292 292 291 292 293 294 295 297 296 296 295 295 294 296 296 298 302 303 306 311 314 315 316 317 318 319 319 320 318 319 320 321 324 324 326 328 329 330 331 330 331 332 332 333 333 333 333 333 331 331 333 333 332 331 329 329 327 327 327 325 326 326 327 326 329 329 328 329 329 332 335 335 336 337 336 335 334 335 334 334 333 333 333 332 331 330 331 332 333 332 331 328 324 325 326
293 295 295 295 294 294 292 294 295 294 294 297 293 289 290 296 295 296 297 301 306 307 312 314 315 315 316 317 318 318 319 320 320 321 323 324 326 328 329 330 329 330 331 333 334 334 332 330 330 330 329 330 332 332 331 330 330 328 327 326 324 325 322 323 323 323 324 326 323 325 325 328 332 335 335 336 335 333 332 333 333 333 333 333 333 333 331 330 330 331 333 333 332 333 330 325 323
291 294 296 296 293 293 294 293 294 291 289 294 295 289 286 296 294 295 296 298 302 307 309 312 314 315 315 317 318 317 317 317 319 321 322 323 325 326 328 329 330 331 326 324 323 322 321 322 325 326 327 329 332 331 330 331 330 330 330 328 327 326 322 321 322 324 324 321 324 326 325 327 330 334 335 336 336 335 334 333 334 334 334 333 333 332 331 331 329 330 332 333 332 331 330 326 324
291 297 293 294 293 293 295 295 294 293 295 296 294 294 290 289 294 297 295 299 300 302 305 309 313 315 315 316 318 317 317 318 318 319 321 323 324 326 326 328 325 321 322 324 323 322 319 318 321 323 325 325 328 330 330 331 329 328 327 326 326 325 324 322 323 323 323 323 324 324 326 327 327 331 334 334 336 335 335 334 334 334 333 333 331 331 331 330 331 331 331 332 332 332 331 328 325
295 293 294 293 295 295 295 295 294 293 293 291 295 293 290 288 295 297 297 297 299 300 304 307 310 313 315 316 317 317 318 318 318 318 320 322 323 325 326 323 321 322 321 322 323 322 321 321 322 323 322 323 324 326 327 328 329 329 328 326 323 323 324 323 323 322 321 324 323 324 325 325 326 328 329 332 333 334 334 334 335 334 334 333 331 330 332 330 330 330 330 330 332 332 333 331 327
293 293 294 293 293 293 295 295 293 292 291 287 291 291 289 288 294 295 294 296 297 299 301 304 309 312 314 316 317 318 317 317 318 319 320 321 323 324 324 322 322 321 321 322 323 324 323 324 323 320 319 321 323 325 326 327 327 327 327 327 325 323 323 323 323 321 322 324 323 323 324 325 325 327 327 328 329 330 332 333 333 333 333 331 329 330 329 330 330 331 331 332 333 331 331 330 328
293 294 295 294 293 294 293 293 293 292 285 289 289 289 290 286 292 294 295 296 296 298 301 303 301 306 311 316 317 317 316 316 316 317 319 319 321 323 324 322 323 325 325 323 322 321 320 320 320 319 319 319 321 324 325 324 325 327 327 327 327 324 324 324 321 321 320 322 322 322 323 323 325 324 325 326 325 327 328 328 328 328 328 327 326 327 328 327 328 328 329 330 331 330 330 329 327
294 295 294 294 292 295 294 292 294 286 284 288 287 289 290 286 289 295 297 298 297 297 297 299 301 301 303 311 314 315 316 316 316 316 315 317 318 320 323 323 325 326 327 324 321 320 320 320 320 320 319 321 321 322 323 323 323 324 326 327 326 326 325 323 323 321 321 321 322 321 321 323 323 323 324 325 325 325 326 325 325 325 325 326 326 326 325 325 325 326 327 328 328 328 329 328 327
294 294 294 289 285 285 283 288 283 284 284 288 290 288 289 289 294 296 297 298 298 300 299 300 301 302 302 301 309 314 315 315 315 315 316 317 318 319 320 323 325 326 324 323 322 320 319 319 319 319 319 320 322 323 322 323 323 323 324 325 325 325 325 325 324 322 322 321 321 322 322 322 322 323 324 324 323 324 325 325 324 324 324 324 324 323 322 322 324 325 326 326 326 326 325 324 321
292 292 291 287 282 280 276 281 283 285 288 289 289 290 288 291 294 296 296 299 301 301 303 304 304 305 305 303 307 313 314 314 314 315 315 317 318 318 319 320 322 324 323 322 322 321 320 319 319 319 318 318 319 321 324 323 323 323 324 324 324 324 323 324 324 322 321 321 322 323 323 323 323 325 324 323 321 321 322 323 323 323 322 321 321 321 321 321 323 323 324 323 322 320 320 321 319
293 293 293 290 288 283 276 282 279 282 286 288 288 287 287 287 291 296 298 300 302 304 305 306 307 307 307 308 310 311 312 313 314 314 315 317 320 323 323 320 319 321 322 322 322 322 322 320 319 319 318 317 319 320 322 322 322 322 323 323 323 323 322 322 322 322 321 320 319 321 322 324 324 323 322 321 320 321 321 322 322 321 320 320 320 320 320 320 321 319 320 320 318 318 319 319 318
290 291 293 290 288 294 285 285 287 286 286 285 287 286 290 292 294 297 299 302 302 304 304 306 306 308 309 309 309 309 311 312 314 315 317 320 323 323 328 320 318 316 320 322 322 323 322 319 320 321 320 319 319 320 321 322 322 323 322 321 321 322 322 322 320 319 318 318 319 319 319 322 322 321 320 320 319 320 321 320 319 319 318 319 319 319 319 319 320 319 317 318 316 316 318 318 317
291 290 289 291 296 294 284 283 284 282 285 284 286 287 290 294 293 295 297 299 299 300 301 304 305 306 307 307 308 309 311 312 314 315 317 322 324 322 321 319 317 314 316 320 321 323 323 321 321 322 323 322 320 321 321 324 325 323 323 324 323 323 323 322 322 321 320 318 316 317 319 320 321 321 320 320 320 320 320 320 320 318 318 318 319 318 317 318 319 319 318 317 315 316 316 315 316
291 288 291 293 295 296 291 283 282 283 282 282 285 284 287 288 286 295 297 296 298 298 298 302 305 305 305 305 306 307 308 309 310 312 313 313 314 316 316 315 313 313 316 319 320 322 324 324 323 323 324 322 322 322 323 325 324 323 322 322 323 324 323 320 321 322 320 318 315 314 317 319 321 321 321 320 320 320 320 318 319 319 319 319 319 318 317 317 318 316 316 314 314 315 313 314 315
294 293 297 292 286 285 287 286 277 278 277 281 284 283 286 287 290 292 294 294 295 296 298 301 303 304 305 305 306 307 309 310 310 311 312 312 314 315 317 317 315 314 316 319 322 322 323 324 324 324 323 323 323 323 323 323 323 323 322 322 321 321 323 322 323 323 318 316 316 315 316 320 320 320 320 320 320 320 320 319 319 319 319 319 318 318 317 317 318 316 316 313 314 315 313 313 314
292 293 292 291 294 292 286 287 289 288 279 277 280 285 284 289 290 291 292 294 294 295 297 298 302 302 304 305 306 307 308 309 309 310 311 312 313 315 316 317 316 316 316 318 320 322 322 322 322 322 323 323 323 323 323 323 323 322 323 323 319 320 321 320 321 321 319 317 317 315 316 317 320 320 322 321 320 319 320 319 319 318 319 319 318 318 317 316 317 317 316 314 315 315 313 312 312
289 292 289 290 290 289 291 289 287 286 281 281 281 279 286 290 292 291 292 293 294 295 296 298 302 303 304 304 306 307 307 307 308 308 309 310 311 313 314 316 317 318 319 320 320 322 322 321 321 321 321 321 321 322 322 322 323 322 324 324 323 322 321 321 320 320 319 319 318 316 316 318 317 321 321 321 319 319 319 319 318 318 318 319 318 318 318 317 317 316 317 316 315 314 312 313 314
292 292 290 290 287 286 284 282 285 285 286 279 280 280 288 290 293 292 292 294 295 296 296 299 302 303 304 304 305 305 305 305 306 306 307 306 307 308 309 312 316 318 318 318 319 320 320 321 320 320 321 320 321 321 321 322 322 324 324 325 324 324 323 323 322 321 320 319 319 318 317 316 316 318 320 319 318 320 320 318 317 317 318 317 317 317 317 317 316 317 317 317 317 314 313 313 314
Wind_Speed
2 2 2 2 0 1 3 1 5 2 1 4 4 3 1 2 1 4 5 2 5 2 1 2 4 9 6 3 6 5 4 12 5 8 2 4 2 12 14 14 16 17 18 16 15 16 16 16 17 18 19 19 19 19 19 19 19 19 19 18 15 15 15 14 15 15 15 14 14 14 15 15 15 14 14 14 13 14 14 15 15 15 16 16 16 16 15 15 14 14 14 14 14 14 14 13 13
1 2 2 1 2 3 4 1 1 2 1 3 7 1 0 2 2 3 7 4 2 3 4 6 7 6 7 5 8 8 6 6 3 2 1 3 11 10 12 14 17 18 17 16 15 14 15 17 17 16 18 19 19 19 19 19 19 17 17 17 15 15 15 15 15 15 15 14 15 14 14 14 14 14 14 14 14 13 14 16 16 17 17 17 17 16 15 14 14 14 14 14 14 14 14 14 13
2 2 3 1 2 2 3 1 3 0 5 5 5 5 3 4 2 6 5 1 6 5 1 3 4 5 2 2 3 4 4 1 3 3 4 8 11 8 11 14 17 18 17 14 14 14 13 16 17 17 17 18 18 18 19 19 18 18 18 16 16 16 16 16 16 16 16 15 15 14 15 14 14 14 14 13 12 12 12 13 15 17 18 17 17 16 15 15 15 14 14 14 13 14 14 14 13
3 1 2 2 4 3 3 1 1 4 5 4 4 3 4 4 4 3 4 6 6 1 1 4 2 2 3 3 4 1 4 3 1 5 4 9 7 10 12 16 18 15 14 13 13 13 13 17 17 17 17 17 17 17 16 19 19 20 19 18 15 15 16 16 15 15 15 15 15 15 14 14 14 13 13 13 13 13 12 12 12 15 18 17 16 16 15 15 15 15 14 14 14 14 14 14 13
2 1 2 1 2 3 3 1 1 1 7 6 2 3 3 4 4 5 5 5 4 1 3 4 4 4 5 5 2 2 2 3 4 3 6 6 8 10 14 16 15 15 14 14 13 14 14 20 17 17 17 18 18 16 16 17 17 16 16 15 15 14 14 14 14 15 15 15 15 15 15 14 13 13 13 13 13 13 13 13 13 12 14 15 15 13 14 14 14 14 14 14 14 15 15 14 13
2 1 0 2 2 2 2 3 4 7 5 3 3 4 3 3 2 3 2 5 4 2 1 3 2 3 3 3 2 2 1 1 4 3 8 7 12 12 15 14 14 14 14 13 12 12 15 19 18 17 18 18 18 16 16 16 16 15 15 15 14 14 14 14 14 14 14 14 14 13 13 13 12 13 13 13 12 12 12 12 11 12 15 14 14 13 12 13 13 13 14 14 15 15 14 13 12
3 3 1 2 2 1 3 4 6 7 5 4 3 2 2 1 3 3 6 6 5 3 1 3 5 7 5 2 3 2 3 2 6 5 6 10 12 13 14 13 14 15 14 13 12 12 18 18 18 18 18 19 19 17 16 15 15 14 15 15 14 14 14 13 13 13 14 13 12 12 12 12 12 12 12 13 12 11 11 11 12 14 15 14 14 14 12 12 12 13 14 15 15 15 13 12 10
1 2 1 3 2 1 3 3 7 3 2 5 3 6 3 1 3 3 7 3 1 5 3 5 6 2 3 2 1 3 3 2 3 8 10 11 13 13 13 13 14 14 14 13 11 11 18 17 17 17 18 18 19 19 17 16 15 14 12 13 14 13 12 12 11 11 11 11 12 12 12 12 11 11 12 12 12 11 11 12 12 13 14 13 13 13 13 12 11 13 14 14 15 14 13 12 9
1 1 1 2 3 2 1 5 4 2 7 7 9 5 9 6 6 6 7 6 1 1 7 8 6 6 3 3 2 2 3 4 8 11 11 12 13 13 10 13 14 13 14 12 10 11 15 16 17 17 17 18 19 18 17 15 16 15 13 12 11 11 11 11 11 10 10 10 10 11 12 11 11 11 11 11 11 11 12 12 12 13 13 13 13 13 13 12 12 12 13 13 14 14 13 11 9
3 2 3 1 1 6 1 4 3 2 4 4 7 9 7 1 5 8 8 9 7 7 5 2 2 2 7 4 3 2 2 7 10 11 11 13 12 12 12 12 13 15 13 13 10 12 11 19 17 17 18 17 16 18 19 18 18 16 14 12 12 12 11 10 10 10 9 9 10 9 10 10 10 10 10 10 12 12 12 12 11 12 12 13 13 12 12 13 13 13 13 13 12 12 12 11 10
4 2 2 3 3 4 7 4 2 5 4 4 8 7 6 4 5 6 10 2 6 8 6 5 5 9 6 3 2 2 4 8 10 12 12 12 12 12 11 11 13 13 12 13 12 11 12 13 17 17 18 16 15 14 15 18 17 15 14 13 13 14 12 10 9 9 9 9 10 10 10 10 10 10 10 11 12 12 11 11 11 12 12 11 11 11 12 13 12 12 12 12 12 11 10 10 10
3 2 2 3 4 4 1 3 3 4 6 2 3 3 2 5 4 5 9 10 6 9 8 7 5 8 6 4 3 3 6 7 9 11 12 12 11 12 12 10 11 10 12 10 10 8 8 10 11 15 16 17 17 15 14 17 16 14 14 13 14 14 12 11 10 9 9 9 9 9 9 10 10 10 10 10 10 11 10 10 10 11 11 10 10 10 10 12 13 12 12 11 11 10 9 8 9
0 1 3 2 2 2 1 2 2 3 4 1 5 7 7 0 3 6 6 4 7 10 4 4 11 3 4 3 3 4 6 8 9 11 12 11 11 10 11 11 12 12 11 12 10 9 9 7 5 12 12 16 16 17 17 17 17 14 14 13 14 14 13 11 10 9 9 9 9 9 9 9 10 9 9 10 10 10 10 11 10 10 10 9 10 9 10 12 12 12 11 10 9 9 8 8 7
2 3 4 5 2 1 3 2 1 3 1 1 0 7 5 3 4 1 7 8 7 4 2 5 8 4 5 4 3 5 6 9 11 12 10 12 11 12 13 11 11 10 11 10 9 9 8 8 6 5 8 10 11 16 16 14 13 14 12 13 13 13 12 11 10 9 9 9 8 8 8 9 9 10 10 10 10 10 11 11 11 10 10 9 9 9 9 11 12 12 11 10 9 8 8 7 5
2 1 2 1 1 1 2 4 3 3 2 1 2 5 4 3 1 3 3 8 4 2 4 3 2 3 3 7 5 8 9 12 11 11 11 12 13 12 13 12 11 10 10 9 8 8 7 10 8 9 9 7 12 9 8 12 14 13 12 12 12 11 12 11 10 9 8 8 8 8 8 9 10 10 10 10 10 10 10 10 10 10 10 9 9 9 9 10 11 11 10 9 9 8 8 7 4
2 3 1 3 3 4 3 4 1 1 2 2 3 4 2 4 3 1 2 4 4 2 3 4 1 2 1 6 2 11 12 13 11 11 12 13 12 11 11 11 11 10 8 6 7 6 8 9 10 8 6 2 9 6 7 9 13 11 11 11 13 13 12 10 10 9 9 8 9 8 8 8 8 8 9 8 9 10 8 8 10 10 9 9 9 9 9 9 10 10 10 9 9 9 8 7 3
2 0 3 1 5 5 3 5 5 3 1 2 2 8 8 4 1 3 2 2 8 5 2 3 1 2 2 1 4 16 13 12 12 13 13 10 9 8 8 8 9 8 7 8 7 7 8 10 10 8 8 7 11 10 9 6 4 9 10 10 11 11 11 11 10 10 9 9 9 7 6 5 5 5 5 6 8 7 6 7 9 9 9 9 9 8 9 9 10 11 10 9 9 8 8 8 5
2 4 2 4 1 6 4 6 7 2 2 4 6 5 5 5 3 3 2 6 4 4 3 3 3 4 4 3 10 15 14 13 14 14 11 11 9 9 9 8 8 8 8 6 7 6 5 7 10 10 7 11 11 8 8 9 9 7 7 7 8 10 10 11 10 8 8 8 8 7 6 4 4 4 4 5 4 6 6 7 8 9 9 9 8 7 7 8 9 10 10 9 8 7 5 3 3
3 2 2 6 4 4 3 1 3 2 3 4 4 3 1 4 3 3 2 2 5 5 1 1 2 5 7 9 14 15 14 12 13 12 12 12 9 10 7 7 8 8 8 5 5 6 4 5 9 8 5 5 7 8 8 7 8 6 5 6 7 8 9 9 8 8 7 7 7 7 5 3 4 4 4 5 4 5 5 3 3 8 9 9 8 8 8 7 7 9 9 9 8 6 3 4 2
2 3 5 3 6 4 3 3 5 5 3 8 7 1 3 5 3 1 2 5 3 7 5 2 5 5 6 10 13 14 13 13 12 12 11 9 8 7 6 7 7 8 7 6 3 5 5 7 8 7 4 6 7 6 6 7 4 6 3 5 5 5 5 7 7 7 7 6 5 5 4 4 4 3 6 8 6 4 4 6 3 3 5 6 9 6 7 7 7 7 9 8 5 3 3 3 3
3 3 4 2 4 3 3 6 8 5 3 5 2 4 3 4 2 3 5 5 4 6 7 6 9 10 11 12 14 13 13 13 12 11 11 10 11 8 9 9 7 7 8 6 6 5 6 8 5 4 7 2 4 8 8 6 6 7 5 4 4 5 5 6 6 6 5 5 6 5 5 4 4 4 4 4 3 3 3 3 3 3 3 4 2 2 3 4 3 4 3 2 3 3 3 3 2
4 5 2 2 3 4 7 4 2 2 1 3 1 7 5 1 2 3 9 4 1 3 2 6 1 11 14 16 15 14 14 12 12 12 12 12 12 13 13 11 10 10 9 5 4 5 6 3 4 3 6 6 3 3 5 5 7 6 6 4 2 5 7 6 5 5 6 6 5 5 5 5 4 4 4 4 3 3 3 2 2 3 3 2 2 1 1 2 3 3 2 2 2 2 3 3 3
6 2 3 3 4 6 2 0 2 4 1 2 6 2 4 2 2 3 5 6 2 1 5 4 7 11 11 13 15 16 15 13 13 13 13 13 14 15 12 12 12 12 10 7 7 6 5 4 5 4 7 6 4 2 5 5 6 6 6 5 7 6 5 6 6 5 6 6 6 6 6 5 5 5 5 5 4 3 3 2 2 2 3 3 2 2 2 2 2 3 2 2 2 1 3 3 3
4 4 2 4 6 9 3 6 1 3 2 4 1 2 6 3 5 2 5 6 2 7 6 5 7 11 13 15 15 15 14 12 12 11 11 14 15 15 13 11 9 10 9 8 10 8 6 4 5 3 6 6 5 7 2 4 5 5 5 6 7 6 6 6 5 5 5 6 6 6 6 5 5 5 5 5 4 3 3 3 3 3 3 4 4 3 2 2 2 2 3 2 2 2 3 3 3
5 4 4 3 3 6 4 4 6 5 5 3 2 4 3 4 3 3 5 4 3 2 2 7 11 12 12 14 14 14 14 13 13 9 10 12 15 14 8 6 9 11 13 11 10 10 7 6 1 2 5 7 1 1 5 3 3 6 7 8 6 6 5 5 5 5 5 5 6 6 5 4 4 4 4 4 4 4 4 4 3 3 3 4 5 4 3 2 2 2 2 3 2 2 3 3 3
6 6 3 1 5 4 4 5 8 5 3 3 3 6 3 5 2 4 5 3 1 2 5 7 10 12 13 13 14 15 12 13 13 12 13 14 14 15 15 10 10 11 12 13 11 9 7 7 6 5 7 6 5 5 4 5 5 6 6 6 5 6 5 4 5 5 5 5 5 5 5 4 4 4 4 5 5 4 3 3 3 4 4 3 4 4 3 3 3 3 3 3 3 3 3 3 3
4 4 5 5 4 4 3 4 2 2 3 4 3 3 3 1 3 3 1 1 3 5 6 6 10 11 13 13 13 12 12 12 13 12 12 10 9 10 12 12 10 11 14 15 13 11 9 8 7 6 8 8 7 7 6 4 6 6 6 5 5 6 4 4 4 5 5 5 5 4 4 4 3 4 5 4 4 3 3 3 3 4 4 4 3 3 3 2 3 4 4 4 4 4 4 3 3
3 3 1 4 5 6 5 4 7 1 5 6 7 1 2 2 3 3 2 4 5 8 7 9 9 11 11 12 12 10 10 9 10 13 14 13 5 8 12 12 11 10 13 15 14 14 14 12 10 11 11 11 9 9 8 7 6 5 6 5 4 5 3 4 5 4 5 4 5 5 5 4 3 3 5 5 4 3 3 3 4 4 4 3 4 3 3 2 3 4 5 5 5 6 5 5 4
1 2 3 2 3 5 2 4 3 3 3 4 5 1 3 1 4 1 1 4 6 8 9 9 10 10 10 11 9 9 8 7 9 10 12 10 5 5 8 12 13 11 10 13 12 7 10 11 10 12 11 13 11 9 8 9 7 7 6 6 5 4 4 4 5 5 4 4 4 5 2 3 3 3 6 7 5 4 3 4 3 2 2 3 3 5 3 2 3 3 5 5 6 6 6 5 4
2 3 1 3 2 3 1 1 1 3 2 4 5 7 3 6 5 1 2 5 7 7 8 8 9 10 10 9 8 7 7 8 7 9 9 8 9 9 1 10 14 13 11 11 12 12 8 7 7 9 13 12 11 8 6 7 8 6 6 6 5 4 5 5 4 3 3 3 3 4 6 7 4 3 5 5 7 5 5 4 3 3 3 4 3 3 4 2 1 3 4 4 4 5 6 4 4
3 1 1 1 1 4 2 1 3 4 2 4 2 7 2 4 5 4 3 5 8 7 7 8 8 9 9 9 8 8 6 7 9 10 15 12 9 3 3 5 13 13 11 13 16 14 12 10 7 6 10 7 6 5 5 4 5 5 4 4 4 4 4 3 3 2 2 2 2 2 3 3 6 6 5 6 5 4 4 4 5 4 3 3 3 3 5 5 4 1 2 4 2 3 4 4 5
2 3 3 0 3 2 5 2 6 6 3 1 4 5 7 6 1 2 6 6 7 7 7 8 8 9 10 9 9 8 6 5 9 10 11 12 8 6 3 6 14 14 13 13 14 13 13 12 12 10 6 8 7 6 4 4 4 5 4 3 3 3 2 2 1 2 2 2 2 2 3 3 5 6 7 7 5 5 5 4 4 4 4 4 4 4 4 5 5 6 3 3 2 3 4 4 5
2 3 1 2 1 1 4 3 3 4 2 1 7 4 1 6 2 2 6 9 9 7 8 8 9 10 10 10 9 9 7 7 8 10 11 9 8 9 7 10 13 12 10 10 11 10 11 10 8 6 11 10 9 8 7 6 5 5 5 4 4 3 3 2 3 3 3 3 3 2 2 3 5 5 5 5 5 6 5 5 4 4 4 4 4 4 4 4 5 8 5 4 2 3 4 5 5
3 2 2 1 3 2 3 1 2 0 3 4 3 5 7 2 3 1 7 8 8 8 8 8 8 8 8 9 9 10 10 9 10 11 12 12 9 12 11 13 12 10 9 10 9 8 7 4 4 7 9 9 7 8 8 8 7 6 6 5 4 3 3 3 3 3 3 2 3 3 3 4 5 6 5 5 5 5 5 5 4 4 5 5 5 4 3 3 3 5 8 2 2 4 4 5 5
5 3 3 3 2 3 3 2 3 2 2 4 2 8 9 7 1 1 6 7 8 7 6 7 7 7 7 8 9 10 9 9 8 8 12 13 11 13 13 11 9 8 6 7 6 6 4 2 3 4 7 9 9 10 9 8 8 6 5 5 4 3 3 3 3 3 3 3 3 4 4 4 5 6 6 6 6 5 5 5 4 5 5 5 5 5 4 3 3 3 9 8 5 1 2 4 4
5 3 2 1 2 3 3 4 1 3 4 5 7 8 11 9 5 3 5 7 9 6 5 5 7 7 7 8 8 8 8 8 5 7 8 7 7 8 8 6 6 7 6 6 7 7 6 4 3 3 3 7 8 8 8 7 7 7 7 6 5 4 3 4 4 3 3 4 4 4 4 4 5 5 6 6 6 6 6 5 5 5 5 5 6 5 4 4 5 6 10 10 4 2 3 3 4
5 2 3 2 2 5 5 5 4 3 2 7 8 10 7 7 5 5 6 6 6 6 9 8 9 9 9 8 9 9 8 7 6 8 8 7 6 5 4 4 5 7 7 7 7 7 7 7 6 4 3 5 7 7 6 7 7 6 4 5 5 4 4 4 4 3 3 4 5 4 3 3 5 5 5 5 6 6 6 6 6 5 5 5 5 6 6 6 5 6 9 8 8 5 4 4 4
3 3 2 2 3 4 3 3 1 2 4 1 3 4 9 7 2 2 5 7 11 11 10 9 9 9 9 10 10 9 6 4 6 6 7 6 5 6 5 4 7 9 7 8 9 8 8 7 7 5 4 5 4 6 7 6 4 4 5 5 5 5 4 4 4 3 3 3 4 4 4 3 4 5 5 5 5 5 6 6 5 5 4 4 5 7 8 8 7 6 7 8 5 6 5 6 5
2 3 1 3 4 5 8 2 1 2 3 2 2 5 6 6 3 2 7 9 4 5 5 4 6 9 9 10 8 5 6 7 8 8 7 8 7 8 6 6 7 7 9 10 10 8 7 7 5 5 4 5 4 5 6 5 4 4 4 5 5 5 4 3 4 4 4 5 5 5 5 4 5 5 6 6 5 5 5 5 5 4 4 5 5 6 7 7 6 6 5 5 6 4 4 4 5
3 3 3 4 2 1 2 2 2 3 1 2 4 4 2 3 1 1 3 4 2 3 5 6 4 6 6 6 6 7 9 9 10 10 9 8 9 8 7 7 8 7 8 9 10 9 6 5 5 5 4 4 4 4 5 6 7 7 7 6 4 4 5 4 5 5 6 7 5 3 4 5 5 5 6 6 5 6 5 6 6 5 5 4 5 5 5 5 5 5 5 7 7 6 4 3 2
1 4 3 4 4 4 4 1 1 1 1 1 4 5 4 3 1 2 2 1 5 1 5 6 3 4 5 7 11 11 12 12 11 10 9 9 10 10 10 9 8 9 10 10 10 9 5 7 6 5 4 5 4 6 7 8 8 8 7 7 7 7 5 4 4 5 4 6 6 4 3 3 5 5 5 5 6 6 5 4 5 5 5 5 4 5 5 5 5 4 5 5 6 5 6 4 3
2 6 10 10 5 5 4 2 2 2 3 4 2 3 2 2 1 1 2 1 7 1 4 7 6 6 7 11 10 5 7 6 9 10 8 9 9 8 8 9 9 10 9 4 2 4 9 8 8 6 5 6 7 7 8 7 7 8 7 7 6 5 5 4 4 4 4 4 5 3 4 3 3 5 5 5 5 5 5 5 5 5 4 4 4 4 5 6 5 5 5 4 5 4 5 6 5
2 5 11 11 3 1 1 2 2 2 3 1 1 3 3 1 4 2 2 2 6 2 4 6 6 7 9 10 7 6 8 7 5 6 7 8 9 9 9 9 6 4 14 20 21 19 15 6 6 5 6 6 6 7 8 6 6 6 6 6 6 6 6 3 2 2 3 3 3 4 4 4 4 4 4 4 5 5 5 5 5 4 3 3 3 4 5 5 6 5 4 4 4 4 5 4 6
6 1 5 7 5 6 4 3 1 1 2 3 2 2 4 3 2 2 2 3 4 5 5 7 7 8 10 10 7 7 7 8 8 8 8 8 8 9 8 6 16 18 15 15 14 12 11 11 6 2 1 4 4 4 5 5 7 6 6 6 5 5 5 6 4 3 3 3 4 4 3 3 4 4 4 4 4 4 4 5 4 4 3 3 3 4 5 5 5 5 5 4 4 3 4 4 5
1 3 5 8 8 4 4 2 2 1 2 2 1 6 3 0 1 4 4 2 2 4 6 7 8 9 9 11 9 7 7 7 8 6 6 6 7 4 7 16 17 14 10 10 10 12 12 9 4 4 5 4 3 5 6 5 6 6 6 6 6 4 6 6 4 4 4 3 6 4 4 4 4 4 4 4 3 3 3 3 3 3 2 2 2 3 3 5 5 5 5 5 4 4 3 3 5
1 6 8 7 6 5 1 1 3 1 3 2 1 6 4 2 1 2 2 1 1 3 5 3 6 9 9 9 9 6 5 4 5 5 5 5 4 6 12 17 15 10 9 13 14 10 6 9 10 9 7 3 1 5 5 6 6 6 6 6 8 6 6 6 5 5 4 3 6 4 3 3 3 3 4 4 3 3 2 3 3 3 2 2 1 3 3 4 4 4 4 3 4 5 3 4 4
7 5 8 4 4 2 2 4 1 3 2 2 3 4 2 6 1 1 1 3 3 7 4 2 2 5 8 9 8 5 5 5 5 6 6 6 6 10 14 15 13 11 9 11 12 15 14 13 13 11 5 3 2 1 4 7 6 5 6 6 7 8 7 7 7 5 5 5 5 4 3 3 2 3 3 3 3 3 3 4 4 4 3 2 3 3 3 3 3 4 4 6 6 6 4 5 6
4 2 3 4 3 2 2 2 2 1 3 3 2 2 3 6 2 2 2 4 3 5 8 9 10 9 6 3 1 2 4 6 8 9 8 9 10 10 12 12 10 9 9 11 11 13 15 12 10 6 7 6 4 3 3 3 4 4 5 6 7 6 7 6 6 6 5 6 5 4 3 3 3 3 3 3 3 3 3 4 4 4 3 3 3 3 3 3 4 4 4 5 5 6 7 7 6
2 4 4 6 2 0 3 2 4 4 3 3 2 1 2 1 2 3 7 8 9 6 6 9 11 11 10 6 2 4 6 8 8 8 8 8 9 10 10 9 8 6 8 11 11 9 8 13 14 10 5 3 3 7 9 8 7 6 6 6 6 5 5 6 6 6 4 5 4 4 3 4 3 3 2 3 4 4 3 3 3 3 3 2 3 3 3 3 3 4 5 6 6 7 6 7 6
4 7 4 5 3 2 2 1 2 3 2 1 1 2 1 3 1 3 7 8 8 8 7 8 8 9 8 5 1 6 8 9 8 9 9 8 8 8 8 7 7 6 6 10 10 13 12 11 11 12 11 9 10 8 6 6 5 5 6 7 8 7 6 5 4 5 4 3 3 3 3 4 4 3 3 4 3 2 3 3 3 3 3 3 3 3 4 3 3 4 5 5 6 5 5 6 6
6 3 7 5 6 4 3 4 4 4 3 2 2 3 4 8 4 5 5 5 6 5 5 5 4 4 3 3 7 9 9 8 9 9 9 9 8 5 6 7 6 7 6 6 9 11 10 9 12 13 13 13 9 4 7 9 6 6 4 3 4 6 7 6 4 4 4 4 2 2 2 2 3 3 3 3 3 3 3 2 3 4 3 3 3 3 3 3 3 4 5 5 5 4 5 5 5
1 2 3 4 5 3 5 1 2 3 3 2 3 1 1 2 1 1 1 2 5 6 8 7 8 7 6 8 8 7 8 9 9 10 10 10 10 6 3 6 6 6 8 6 9 10 10 11 12 14 15 12 9 10 9 8 8 7 9 8 7 6 5 5 6 5 4 4 2 1 1 2 2 3 3 4 3 2 2 3 4 4 3 3 3 3 3 3 3 5 5 5 5 2 5 6 5
5 4 6 1 4 7 5 2 3 1 1 2 2 1 1 1 2 1 2 2 5 7 10 10 10 9 9 7 6 7 7 8 8 9 9 5 4 5 3 1 1 6 7 8 9 9 12 12 12 11 8 7 10 11 11 10 7 5 8 9 9 7 5 7 6 6 5 4 1 2 1 2 3 2 3 3 4 3 2 2 3 4 4 3 3 4 4 4 4 5 5 5 5 3 4 5 3
8 5 5 5 1 4 2 4 1 0 3 2 1 1 3 4 4 4 4 9 9 11 11 8 9 9 9 8 8 7 7 7 7 7 7 7 5 3 4 4 5 6 7 8 9 10 10 11 13 13 9 9 10 11 10 5 9 10 10 10 8 6 3 6 9 6 4 3 2 1 1 3 4 3 3 3 4 3 3 3 3 3 3 4 4 4 4 5 5 5 5 5 4 4 5 3 3
2 1 8 5 2 5 2 2 1 3 3 2 2 1 1 2 2 7 8 11 12 12 10 8 9 9 8 8 9 9 8 7 7 7 7 7 6 4 4 5 3 4 4 6 8 8 7 6 8 10 12 10 10 8 6 7 10 9 9 10 12 7 3 1 6 9 7 6 6 4 3 3 4 5 4 4 4 4 3 3 2 3 3 4 4 4 4 4 4 5 5 5 4 3 4 4 3
5 5 5 3 1 1 5 1 1 5 3 2 2 3 2 1 3 7 10 10 10 11 8 7 7 7 5 5 6 7 7 6 6 7 7 7 7 8 8 6 4 4 5 5 6 6 8 7 9 7 7 8 8 8 8 9 10 10 10 10 10 8 4 3 2 5 6 6 5 4 4 4 4 5 5 5 4 4 4 4 3 3 3 3 4 4 3 4 3 4 4 5 4 4 6 5 4
3 5 2 2 3 2 2 3 0 4 3 2 3 2 2 2 4 7 9 10 10 9 7 3 5 6 6 6 6 6 9 8 7 7 7 9 9 9 9 7 6 5 4 4 5 7 7 7 9 9 10 11 11 10 10 9 9 10 12 11 10 9 8 5 3 3 3 3 4 4 4 3 2 4 6 5 5 4 4 4 4 3 3 3 3 3 3 3 3 3 3 4 4 4 5 5 4
4 6 5 5 8 6 6 5 2 1 3 3 4 3 3 3 4 5 7 8 8 8 4 1 7 7 8 8 9 8 8 8 7 7 8 9 10 9 9 7 5 6 7 6 5 4 6 6 7 8 9 9 11 11 10 10 10 10 11 10 10 9 8 6 6 3 3 3 4 5 5 5 5 3 3 6 6 4 4 4 3 3 3 3 3 4 3 2 2 3 3 1 2 3 3 4 3
Wind_Direction
242 47 59 85 90 203 182 202 213 149 206 238 301 198 142 258 332 274 255 342 257 87 339 120 164 157 187 234 194 85 9 163 162 164 208 37 152 153 155 143 142 146 152 154 150 145 146 143 141 139 137 136 135 135 134 132 132 133 133 131 125 123 123 123 123 124 127 130 132 134 135 135 134 134 133 132 131 130 128 128 128 126 124 121 121 122 124 126 125 124 125 124 125 125 120 119 118
101 86 78 158 160 195 169 313 41 189 281 275 236 99 147 126 222 272 306 293 302 82 103 97 86 67 45 88 107 126 61 14 2 9 39 127 132 146 154 145 148 147 151 154 150 145 145 144 142 140 137 137 136 136 136 135 134 133 130 128 127 126 126 127 127 128 130 132 134 136 135 135 134 134 135 135 134 136 138 138 134 129 125 124 124 126 126 128 128 130 130 126 127 123 121 120 119
162 136 115 147 141 320 103 293 229 148 208 229 234 202 87 173 41 355 337 36 142 143 102 64 83 45 61 97 136 313 129 26 130 99 87 142 142 151 151 146 150 149 149 152 151 146 145 145 142 141 139 138 137 136 136 135 135 133 132 131 131 132 132 132 132 134 135 136 137 138 138 137 137 138 137 135 133 132 133 138 136 133 129 127 126 127 130 131 130 128 127 127 128 127 126 123 122
96 130 164 192 136 278 156 146 261 185 199 229 291 166 198 137 67 345 47 132 154 51 155 59 49 357 288 89 35 347 94 146 191 140 138 166 161 150 152 150 149 147 147 154 152 149 146 143 142 143 141 139 136 132 132 135 135 136 135 136 131 130 132 134 134 134 134 136 137 139 140 140 139 138 138 138 137 135 136 133 134 133 129 129 129 128 130 130 130 130 130 128 128 129 127 126 127
174 116 225 215 204 156 194 189 243 202 223 189 194 64 197 145 59 23 107 179 188 22 41 140 123 69 53 55 340 291 99 95 145 171 147 143 129 146 148 146 146 150 152 153 152 151 142 144 144 144 142 140 136 129 129 131 130 130 130 129 130 130 130 131 132 133 133 135 138 142 143 143 142 141 141 140 140 138 138 138 139 134 126 123 124 126 130 132 133 131 127 129 130 129 129 129 130
98 192 153 238 264 34 99 181 201 221 237 88 239 80 137 150 3 11 20 241 238 245 117 124 84 153 98 20 4 137 13 204 144 158 161 140 146 141 146 146 148 151 153 151 150 152 148 145 145 145 144 140 137 131 132 133 133 133 132 133 132 132 131 131 128 128 131 134 137 141 141 139 140 142 142 140 139 138 138 138 140 128 125 123 124 124 127 130 130 128 130 129 128 131 129 129 130
146 166 125 143 110 276 233 230 227 228 236 181 264 255 229 294 298 287 294 305 219 173 244 150 133 122 130 115 141 49 311 290 196 130 162 137 141 143 146 149 149 150 150 152 153 152 148 146 147 146 145 141 137 134 133 133 132 133 136 134 131 132 131 127 125 128 131 134 137 136 136 136 138 140 142 141 138 137 136 130 131 129 129 127 126 126 128 127 128 124 125 127 128 127 125 127 134
47 230 122 196 145 216 215 250 251 187 241 195 306 285 308 152 226 255 273 227 207 225 114 128 147 157 92 168 212 100 37 339 113 132 130 144 144 147 152 149 149 149 152 152 151 152 145 147 147 146 144 140 141 139 136 133 130 128 127 133 135 131 124 122 123 129 135 135 133 134 135 136 139 140 140 140 142 137 130 133 131 129 130 127 124 125 127 127 130 129 129 129 129 130 129 127 125
112 103 17 172 187 45 238 234 266 183 294 281 265 212 263 264 243 251 261 231 38 156 146 150 162 185 171 159 148 79 63 105 117 123 137 142 148 150 154 154 151 150 152 151 150 149 150 151 146 144 141 144 144 141 136 130 132 126 133 136 127 117 115 120 130 137 133 130 132 136 138 137 137 139 142 143 143 138 136 134 134 134 134 128 124 121 123 127 127 121 123 130 129 128 125 119 116
96 276 168 179 58 210 336 244 223 234 241 273 293 288 279 189 229 225 250 246 213 152 137 136 195 140 146 149 143 158 114 136 129 123 139 148 149 149 149 154 151 147 149 154 149 151 154 153 143 142 142 144 144 145 144 137 135 134 142 138 130 119 124 136 138 132 130 133 135 137 137 135 136 136 139 143 142 138 136 137 137 139 137 131 124 121 121 122 123 125 128 127 123 119 119 121 126
152 60 3 186 194 223 221 227 258 271 246 299 284 261 267 252 212 224 223 267 168 169 147 162 109 127 159 130 106 51 145 143 146 136 142 149 150 150 142 149 149 146 147 154 147 153 156 153 148 146 141 141 139 144 142 131 133 141 144 135 129 131 139 141 136 132 136 138 138 137 135 134 135 135 136 137 136 136 136 136 138 141 132 132 124 118 119 118 122 124 123 120 115 115 122 130 136
149 202 176 215 221 214 238 261 276 282 284 302 284 355 357 289 192 214 211 210 165 151 164 201 163 146 119 141 139 134 137 152 140 137 141 150 148 147 143 142 143 140 143 137 137 149 144 144 149 145 141 142 146 141 147 126 133 147 137 136 135 138 144 142 138 139 141 139 135 132 132 135 136 135 132 129 129 133 134 135 138 132 132 129 120 117 116 116 115 112 111 115 116 119 125 133 140
209 104 162 206 221 213 99 274 243 310 307 209 339 355 337 168 224 248 182 155 151 154 143 217 137 172 125 155 109 136 157 139 143 140 141 145 145 140 139 138 142 139 139 138 136 139 138 126 138 143 152 146 140 133 136 145 151 143 140 145 140 144 144 138 139 146 143 137 132 130 132 136 136 133 127 127 128 128 130 132 132 131 126 123 122 123 119 114 111 108 106 106 108 115 129 134 147
217 194 156 218 46 215 196 271 327 273 136 37 138 311 329 336 342 129 139 139 155 149 54 136 150 131 80 134 175 177 160 146 142 143 146 144 145 144 136 133 133 130 135 138 132 139 141 70 47 93 142 154 136 134 151 147 139 139 146 146 143 142 137 140 146 146 140 135 131 131 135 138 136 134 133 131 129 129 130 130 130 129 126 126 127 124 119 112 111 107 107 108 110 119 128 132 144
216 156 122 51 167 174 208 224 220 198 112 18 63 340 347 35 337 101 137 138 123 344 105 89 75 243 151 189 169 189 158 147 138 142 142 145 148 143 137 136 130 128 127 128 114 128 119 119 157 142 162 163 138 136 162 148 138 144 150 148 141 141 144 145 144 140 137 136 132 130 140 142 143 138 139 138 133 133 130 129 127 128 128 130 129 124 119 114 110 105 102 98 99 101 119 126 138
126 142 78 204 188 210 185 220 171 171 126 200 30 311 190 56 27 87 34 324 96 116 188 144 235 351 94 205 80 162 147 140 132 134 142 142 142 139 133 130 131 133 111 103 132 144 141 153 148 175 122 148 128 131 140 143 150 150 148 149 152 154 145 137 135 139 142 140 138 141 141 145 139 142 141 139 138 131 131 130 129 129 131 133 130 126 121 115 112 106 100 97 99 102 107 113 109
123 282 188 130 215 197 166 210 170 183 357 220 325 17 11 24 359 72 315 216 141 134 53 26 11 320 252 152 139 140 140 128 128 138 143 141 136 132 130 129 131 133 114 114 109 133 149 150 134 107 112 100 141 141 135 105 93 164 164 164 155 142 135 137 139 141 145 145 143 111 108 128 137 137 144 138 136 135 114 119 134 133 134 134 132 126 123 121 115 110 103 100 95 89 89 100 93
180 194 183 215 196 192 191 200 192 62 280 351 355 5 343 22 52 93 141 82 88 118 62 36 56 42 357 103 145 137 128 134 142 146 147 144 145 141 135 136 136 129 121 118 107 120 128 132 111 102 108 165 155 125 131 134 175 192 181 162 159 146 138 144 148 153 150 155 131 143 151 139 138 128 119 122 125 132 137 140 144 140 139 138 132 129 125 123 122 117 114 108 105 99 95 106 108
187 115 208 234 162 207 183 193 233 288 334 319 311 0 314 345 241 139 210 113 139 171 78 60 83 54 84 118 137 136 138 140 144 149 150 148 145 138 130 132 131 116 102 88 82 74 70 67 76 88 119 97 132 137 140 152 170 130 163 167 164 143 149 148 152 154 165 165 167 165 149 150 145 135 131 137 129 93 105 102 145 145 145 141 139 135 133 129 123 124 120 111 107 120 109 90 96
182 206 215 231 205 259 209 203 258 213 313 307 321 64 301 315 230 121 263 147 154 200 171 183 198 171 148 144 148 144 146 149 147 143 138 123 120 110 100 103 94 90 89 83 62 30 16 59 73 112 114 119 131 128 120 142 140 123 127 170 140 135 138 152 148 158 167 167 165 167 160 165 157 143 135 130 126 129 103 111 110 132 140 135 142 150 142 133 126 115 114 122 142 122 94 108 104
133 217 224 210 184 227 235 198 243 255 227 285 327 286 316 45 288 232 140 150 216 238 226 196 197 178 166 159 155 153 152 149 143 129 116 99 80 81 90 94 113 110 107 81 59 62 62 88 129 155 117 111 145 143 137 134 114 102 58 338 136 151 151 149 156 166 174 172 177 177 173 166 166 151 139 144 128 134 149 150 146 151 129 150 148 145 142 115 127 113 109 128 94 103 94 87 87
132 226 220 126 130 234 261 226 208 209 272 255 322 326 343 282 168 210 174 213 156 215 252 220 205 168 166 163 159 158 157 146 126 113 110 120 123 111 104 107 105 97 97 93 111 56 64 70 59 72 68 42 5 97 114 116 127 118 132 192 216 166 163 158 156 169 181 184 187 193 177 162 157 152 142 149 149 161 166 163 137 128 131 148 137 103 109 130 127 110 116 98 84 90 94 85 85
224 153 255 232 193 253 315 235 175 176 186 282 307 337 329 41 345 200 224 233 81 290 274 267 180 167 165 160 158 161 156 139 115 122 126 122 117 111 124 137 131 127 129 136 111 77 63 63 67 354 47 71 352 101 117 123 141 135 155 182 189 179 170 168 169 181 188 193 194 199 194 180 169 163 159 164 166 173 174 165 146 144 140 153 148 159 150 139 133 127 121 111 109 109 101 102 112
235 231 144 235 204 234 229 275 191 243 201 257 129 348 287 301 295 118 212 237 352 302 275 251 157 148 156 161 168 156 145 126 119 121 120 127 125 131 140 143 139 127 118 110 127 134 140 70 14 32 75 51 3 343 336 156 137 140 170 188 188 179 177 182 178 193 194 196 198 206 211 192 171 163 170 172 168 168 170 161 157 161 158 155 151 173 150 143 138 129 119 120 115 101 100 105 115
204 225 195 264 203 240 264 271 282 263 243 254 223 262 273 197 237 141 233 246 348 307 157 150 144 149 157 158 157 147 141 116 124 124 112 115 116 107 104 134 142 140 139 135 143 129 116 118 198 143 121 109 78 308 299 327 178 164 188 193 186 187 191 192 185 189 200 200 203 208 209 185 165 166 167 162 158 167 156 163 171 172 174 170 165 160 160 151 147 125 119 117 109 98 96 104 123
194 223 186 214 253 256 260 284 267 278 264 173 178 244 105 229 81 246 261 18 17 127 125 139 148 155 158 158 154 153 143 129 135 134 116 109 116 133 153 170 158 148 140 142 139 142 139 141 189 182 121 123 143 176 206 235 211 202 198 194 195 198 200 203 187 196 203 207 208 208 209 203 177 169 163 158 165 157 150 155 189 186 174 182 175 162 159 165 142 133 126 117 108 99 92 103 132
159 190 211 237 267 339 280 234 270 38 258 183 223 243 87 84 220 245 140 26 129 125 126 144 156 163 158 155 154 149 139 138 137 134 115 106 121 152 167 169 165 146 145 151 149 147 146 158 174 165 163 161 167 177 195 196 224 215 209 195 201 205 196 200 208 205 203 212 216 207 210 213 186 164 156 156 155 135 143 157 180 190 177 178 171 157 164 160 137 133 128 120 110 101 94 97 110
169 187 232 240 302 253 250 286 270 297 284 181 215 228 160 110 186 261 108 143 169 143 140 156 167 161 158 150 150 146 145 139 122 129 119 104 172 167 170 167 163 157 159 161 165 162 166 164 151 174 172 177 176 172 186 197 210 220 215 211 207 208 197 213 214 210 211 217 214 206 205 208 185 161 155 137 108 139 166 183 197 205 187 168 169 159 162 156 145 122 118 109 107 107 108 103 97
49 183 275 285 325 274 149 233 5 211 236 159 174 200 244 129 229 341 224 154 169 150 148 153 163 158 149 148 139 146 140 130 131 129 130 150 141 247 174 166 165 165 170 171 188 167 154 155 159 177 177 183 181 176 166 179 195 208 215 215 209 193 203 219 222 214 214 212 214 220 142 237 187 139 107 111 144 176 195 207 215 200 181 167 184 166 154 148 138 134 122 124 121 121 118 117 112
133 97 306 287 338 250 74 232 327 184 258 158 166 243 218 224 210 351 169 165 153 147 153 151 150 146 148 148 148 138 132 138 136 123 118 109 182 229 229 162 170 169 172 182 178 171 173 162 171 179 185 186 176 160 152 164 182 200 210 202 200 193 217 226 229 215 202 188 194 204 174 190 155 141 151 147 154 167 181 200 204 199 178 170 156 143 126 62 64 135 133 137 137 138 123 132 115
215 106 139 301 238 212 150 75 104 206 103 188 178 249 218 252 259 211 187 185 170 166 160 156 141 145 151 155 149 147 148 152 135 126 129 152 201 189 321 189 175 173 175 179 179 175 174 172 177 187 192 176 123 128 152 156 179 202 193 177 172 191 194 216 215 197 180 166 178 183 192 179 154 178 175 186 167 163 182 187 199 194 162 133 137 151 133 119 95 7 119 130 121 97 113 107 100
27 175 203 160 230 189 289 183 193 216 86 218 201 252 248 250 116 70 181 191 192 176 167 163 153 152 155 155 155 152 150 141 133 140 143 155 176 166 214 235 189 181 177 183 180 173 175 177 188 196 163 122 149 158 164 181 186 205 200 163 169 164 160 160 126 79 76 102 125 148 166 166 164 179 177 180 166 168 176 180 186 173 150 141 161 140 127 142 141 117 214 111 125 116 121 113 111
39 246 207 178 230 283 304 159 253 267 88 85 216 252 34 246 7 300 200 187 195 180 175 174 160 155 158 163 163 162 152 155 148 152 156 154 173 168 181 243 208 187 184 180 179 180 177 187 192 170 161 157 154 151 159 182 175 174 179 160 146 138 138 133 119 109 85 89 111 122 138 150 171 180 177 170 163 159 161 170 183 167 154 151 160 153 171 164 160 155 116 92 211 161 139 121 128
191 358 202 153 203 153 205 308 124 292 238 179 212 235 234 300 351 69 174 193 187 194 183 176 161 164 163 161 165 171 175 166 169 161 168 166 180 181 182 220 200 182 183 188 186 171 176 180 171 172 160 157 149 151 165 161 149 134 135 130 124 129 125 97 91 91 104 104 116 120 140 150 163 178 178 161 147 150 150 163 174 164 147 139 139 145 141 160 162 151 121 136 264 141 140 141 136
182 172 162 179 227 242 291 271 123 175 119 232 164 233 243 236 59 224 182 187 195 199 186 171 160 165 166 174 176 179 179 176 172 173 173 177 175 170 194 204 174 172 177 191 178 154 151 151 156 204 156 144 144 145 141 118 115 108 105 116 122 123 97 84 80 92 92 111 121 138 155 171 158 159 149 143 136 141 150 159 166 159 142 135 142 142 142 147 155 132 120 133 249 238 148 141 133
158 144 158 161 237 168 215 233 98 230 208 232 193 214 227 233 239 180 196 192 198 195 180 172 164 170 177 184 188 184 179 179 162 182 188 183 176 176 185 165 155 162 168 180 188 181 167 156 191 194 179 133 126 128 134 130 130 129 130 134 115 87 83 72 72 84 106 110 126 141 144 145 143 148 140 143 138 144 149 152 153 151 140 141 141 143 138 158 160 125 110 125 162 184 136 133 131
100 115 158 189 254 266 257 269 270 290 243 244 223 224 239 248 229 179 188 182 199 192 197 194 177 173 185 188 195 193 176 176 168 183 196 193 176 179 178 159 150 156 161 174 194 195 163 167 173 189 156 136 141 136 137 144 140 133 126 116 109 111 105 102 93 81 77 97 114 116 137 132 132 133 133 137 136 140 144 145 143 147 148 147 142 137 141 137 136 131 122 132 141 137 128 132 136
165 142 216 223 201 260 230 122 26 263 239 330 62 222 228 237 66 226 176 184 205 203 200 202 189 176 180 190 199 195 156 125 158 180 190 186 182 175 178 179 167 165 170 173 195 196 168 158 172 162 154 141 140 139 142 146 149 140 131 124 119 118 125 114 102 91 83 92 116 116 115 114 128 133 136 134 135 141 142 143 143 142 139 119 111 123 131 136 141 140 134 124 142 145 143 152 152
99 236 193 270 228 252 285 39 209 52 205 273 122 207 227 234 5 308 204 201 224 225 230 235 199 180 179 193 195 161 154 165 174 181 186 186 181 179 186 187 188 184 166 179 193 196 167 159 166 147 149 133 138 142 144 131 110 84 100 118 116 102 62 73 95 103 114 112 112 117 113 111 119 122 129 131 131 131 128 128 126 124 119 121 124 130 134 139 142 145 152 134 136 139 126 155 169
176 151 202 235 95 259 170 128 31 51 274 295 180 155 101 2 27 231 229 242 328 290 238 254 232 201 190 182 167 166 181 176 181 179 185 184 179 181 190 191 191 185 175 183 189 189 160 160 143 125 125 118 135 133 101 88 85 81 73 91 81 86 111 105 110 128 126 115 102 97 97 106 108 110 116 120 120 119 122 124 127 124 119 119 126 134 139 146 156 159 160 147 147 147 158 153 185
212 218 225 256 212 215 222 66 351 177 89 272 161 128 116 48 158 147 152 278 268 304 199 226 214 190 166 197 210 192 183 180 177 178 182 178 181 188 193 197 188 191 190 186 183 178 139 130 116 121 118 133 145 129 116 115 109 96 94 89 97 98 100 108 113 91 91 110 109 88 85 105 112 108 107 108 112 116 115 112 115 119 125 134 144 147 154 157 166 177 170 165 175 163 160 151 152
198 222 215 227 212 224 244 334 295 189 169 40 269 160 95 21 339 301 21 278 224 208 225 214 200 184 187 215 222 177 192 191 180 185 182 179 184 183 197 196 200 202 196 185 100 86 69 77 120 134 148 157 156 145 139 136 132 128 130 131 131 125 123 127 108 106 104 78 78 91 88 77 91 106 111 113 112 117 122 124 123 125 132 144 149 141 139 139 147 160 164 167 154 155 150 154 146
189 232 199 223 201 196 316 264 178 192 164 76 4 250 115 353 125 95 347 265 213 159 231 227 204 199 202 220 210 179 186 189 197 181 173 181 191 191 197 203 206 31 48 63 61 64 70 22 325 169 163 160 155 146 144 128 123 131 140 140 138 136 126 96 90 90 100 100 94 81 86 88 94 107 104 109 121 127 130 134 137 137 138 142 140 144 138 142 148 153 153 168 152 144 151 149 154
210 149 159 170 189 220 214 166 202 51 332 186 150 332 129 144 109 60 335 201 185 221 216 231 222 210 210 221 217 185 187 186 189 194 186 184 187 197 198 73 60 75 67 66 92 107 128 187 204 299 33 68 58 95 125 129 130 137 128 116 114 120 123 128 130 109 98 103 87 76 76 71 78 91 113 119 124 133 135 140 145 141 143 130 142 140 139 141 144 149 162 154 151 162 160 159 156
247 149 169 159 190 186 162 192 105 27 231 115 12 347 137 99 20 334 345 181 156 221 210 215 229 222 217 224 224 195 195 186 191 183 182 181 180 180 75 86 92 86 100 107 103 115 166 204 131 58 40 43 98 116 135 152 145 145 133 127 120 114 118 122 121 117 109 102 90 73 67 71 70 68 79 102 108 126 142 144 140 138 122 111 122 119 122 134 144 151 159 163 166 157 142 136 151
126 133 87 84 88 87 123 137 128 185 201 163 144 343 150 145 63 300 344 329 321 331 326 269 223 232 227 225 224 191 174 160 168 153 144 149 146 101 96 107 108 121 124 121 122 120 26 15 24 58 50 35 9 144 143 144 139 136 135 138 133 134 129 125 126 114 101 93 89 80 82 74 70 79 75 73 86 97 107 117 124 107 95 96 98 96 110 127 140 147 153 153 151 133 122 143 139
131 163 106 89 51 43 68 56 19 140 207 135 337 328 294 157 201 284 118 72 353 331 314 326 311 261 249 240 231 187 166 137 141 135 122 109 102 104 109 113 123 130 131 124 109 98 78 45 21 10 17 48 339 305 139 137 138 147 141 147 137 133 130 128 125 113 114 111 103 89 83 79 62 73 82 82 73 84 90 84 90 99 93 96 110 125 131 129 130 128 131 134 133 131 128 116 119
176 142 138 109 64 346 61 19 1 171 191 89 346 311 294 174 197 222 255 308 345 325 303 315 320 316 300 292 346 102 129 137 134 129 123 112 101 98 105 114 120 127 118 106 115 117 121 126 113 70 3 5 9 2 56 105 130 139 143 143 138 136 138 136 130 127 124 118 113 109 105 103 90 82 76 83 71 59 75 80 78 89 97 106 104 105 110 116 119 122 124 123 115 108 120 125 125
167 121 139 193 163 64 194 195 200 208 194 67 359 317 148 107 64 0 327 341 343 338 308 303 305 304 312 340 17 140 143 142 135 122 113 99 90 88 90 107 117 113 109 115 119 117 117 130 130 120 145 21 304 213 179 165 155 156 155 140 131 133 129 125 121 117 115 116 114 116 125 115 116 107 80 83 67 52 56 85 90 92 103 90 101 103 99 103 110 109 108 106 109 115 120 127 129
179 177 150 168 170 154 207 144 360 335 268 47 342 293 8 38 321 345 318 340 336 324 312 301 298 298 309 318 130 140 143 140 126 112 104 97 91 87 96 98 86 79 111 136 143 145 152 143 148 153 130 162 212 241 242 153 131 141 157 147 140 137 125 115 115 120 109 97 107 119 133 130 126 110 102 78 64 58 62 61 80 80 74 93 91 94 98 99 101 110 107 101 98 95 106 108 112
191 39 181 197 165 178 190 194 195 208 150 88 19 208 160 165 110 354 330 324 332 354 348 334 330 345 9 82 115 121 124 121 123 116 110 106 101 119 142 129 126 139 161 159 156 159 151 152 161 159 171 191 167 111 27 28 43 67 53 58 100 121 131 132 115 96 101 106 85 95 107 119 122 104 96 89 70 59 64 72 67 78 71 73 82 90 88 88 82 90 90 91 95 104 112 113 117
53 185 51 133 211 143 230 92 243 162 140 143 186 255 3 78 67 358 254 209 54 27 22 18 26 33 71 88 98 111 120 126 126 123 127 131 130 157 152 109 121 139 167 165 162 160 157 163 175 183 185 182 151 121 137 154 157 169 148 135 122 113 98 105 104 92 81 54 23 114 139 114 90 104 96 102 78 71 69 81 88 76 70 67 64 71 78 91 85 93 96 94 96 85 108 111 114
158 158 195 203 37 113 91 105 60 358 19 181 32 190 184 255 239 218 11 57 39 21 24 27 27 35 42 57 77 110 129 138 140 144 142 106 47 52 41 94 97 142 164 172 176 173 169 169 182 194 201 139 140 146 165 182 152 134 119 100 89 75 81 90 83 93 105 102 52 317 130 114 109 111 106 99 101 84 77 69 88 92 84 87 84 75 76 78 73 78 85 87 87 76 90 97 97
109 212 171 113 79 37 149 191 74 65 206 167 69 85 150 183 152 343 358 7 1 3 9 18 38 32 46 45 51 46 43 47 53 55 51 55 49 42 47 70 106 128 165 177 186 185 182 177 183 191 194 172 159 164 175 156 114 80 64 72 72 90 172 128 123 118 103 98 137 211 191 157 137 130 126 119 115 106 98 88 97 96 95 90 87 90 90 92 94 89 85 80 77 79 85 79 78
224 296 136 187 173 187 42 110 181 159 201 149 129 253 258 286 21 355 336 345 340 339 346 14 35 30 39 47 55 58 56 54 56 55 49 50 59 73 79 84 93 125 174 193 189 182 172 169 176 188 191 185 171 164 141 107 111 131 145 147 145 162 185 212 145 139 143 170 172 175 195 159 137 147 150 148 142 136 134 126 126 114 105 99 92 87 90 90 97 105 100 99 91 102 102 94 77
53 123 123 351 279 130 164 222 108 194 179 115 156 201 173 88 330 321 300 322 326 320 330 15 41 35 30 53 66 73 68 58 59 67 69 64 62 62 63 71 88 127 153 180 176 165 153 150 158 154 151 166 169 165 144 134 146 152 156 163 155 145 157 148 272 125 145 165 165 165 176 178 181 157 158 157 158 156 159 155 150 142 128 109 100 90 80 85 91 99 117 121 122 133 129 127 126
122 156 137 104 37 313 40 62 47 215 161 191 145 185 180 98 341 309 308 315 313 302 300 355 55 57 51 41 47 58 59 47 40 43 47 56 50 49 55 56 75 83 103 129 148 155 148 147 154 157 161 168 173 169 157 150 156 166 166 172 159 157 168 153 207 119 146 145 154 175 181 183 186 189 158 161 166 167 165 157 148 139 127 113 104 96 81 86 98 104 109 117 137 148 146 142 144
179 169 179 159 140 141 176 191 103 326 179 174 170 188 106 47 347 327 315 316 312 313 282 105 82 71 56 45 40 44 61 55 53 53 54 51 50 47 47 49 56 69 67 69 82 108 123 139 157 158 162 166 166 164 166 164 173 175 172 175 169 168 171 164 165 165 174 172 172 190 180 174 192 218 189 161 164 157 153 142 126 122 118 114 112 104 106 107 118 130 123 123 149 161 159 146 159